Home > Weather > Aalborg > Past weeks

Flag for Denmark Past Weather in Aalborg, Denmark — Yesterday and Last 2 Weeks

Now
63 °F

Partly sunny.


Feels Like: 63 °F
Forecast: 51 / 64 °F
Wind: 6 mph from North

Location: Aalborg Airport

Current Time: May 27, 2016 at 12:27:36 PM

Latest Report: May 27, 2016 at 11:50 AM


Visibility: N/A

Pressure: 30.09 "Hg

Humidity: 59%

Dew Point: 48 °F

Location of AalborgLocation

Past Weather in Aalborg — Graph

°F

Aalborg Temperature Yesterday

Maximum temperature yesterday: 66 °F (at 3:20 PM)
Minimum temperature yesterday: 45 °F (at 4:50 AM)
Average temperature yesterday: 56 °F

High & Low Weather Summary for the Past Weeks

 TemperatureHumidityPressure
High73 °F (May 22, 3:20 PM)100% (May 19, 3:50 AM)30.09 "Hg (May 19, 3:50 AM)
Low43 °F (May 14, 1:50 AM)28% (May 12, 5:20 PM)29.62 "Hg (May 13, 7:20 AM)
Average55 °F76%29.84 "Hg
* Reported May 12 11:20 AM — May 27 11:20 AM, Aalborg, Weather by CustomWeather, © 2016

Note: Actual official high and low records may vary slightly from our data, if they occured in-between our weather recording intervals... More about our weather records

Advertising

Aalborg Weather History for the Previous 24 Hours

Scroll right to see more
 ConditionsComfort  
Time TempWeatherWind HumidityBarometerVisibility
11:20 AM
Fri, May 27
61 °FPartly sunny.7 mph68%30.09 "HgN/A
10:50 AM61 °FPartly sunny.5 mph68%30.09 "HgN/A
10:20 AM61 °FPartly sunny.3 mph63%30.09 "HgN/A
9:50 AM59 °FPartly sunny.5 mph72%30.09 "HgN/A
9:20 AM59 °FPassing clouds.5 mph72%30.09 "HgN/A
8:50 AM57 °FSunny.1 mph82%30.09 "Hg10 mi
8:20 AM55 °FSunny.No wind82%30.09 "Hg10 mi
7:50 AM54 °FSunny.No wind88%30.09 "Hg10 mi
7:20 AM50 °FSunny.No wind94%30.09 "Hg10 mi
6:50 AM50 °FSunny.No wind88%30.09 "Hg10 mi
6:20 AM48 °FSunny.No wind94%30.09 "Hg10 mi
5:50 AM48 °FSunny.No wind87%30.09 "Hg10 mi
5:20 AM46 °FFog.No wind93%30.09 "HgN/A
4:50 AM45 °FFog.No wind93%30.09 "HgN/A
4:20 AM43 °FFog.No wind93%30.09 "HgN/A
3:50 AM43 °FFog.No wind87%30.09 "HgN/A
3:20 AM43 °FFog.No wind87%30.09 "HgN/A
2:50 AM45 °FClear.No wind93%30.09 "Hg10 mi
2:20 AM46 °FClear.2 mph93%30.09 "Hg10 mi
1:50 AM46 °FClear.No wind87%30.09 "Hg10 mi
1:20 AM46 °FClear.1 mph87%30.09 "Hg10 mi
12:50 AM48 °FClear.1 mph82%30.09 "Hg10 mi
12:20 AM46 °FClear.No wind82%30.09 "Hg10 mi
11:50 PM
Thu, May 26
50 °FClear.1 mph76%30.09 "Hg10 mi
11:20 PM50 °FClear.No wind67%30.09 "Hg10 mi
10:50 PM52 °FSunny.3 mph72%30.09 "Hg10 mi
10:20 PM52 °FSunny.2 mph72%30.09 "Hg10 mi
9:50 PM54 °FPassing clouds.3 mph67%30.07 "HgN/A
9:20 PM57 °FSunny.3 mph51%30.07 "Hg10 mi
8:50 PM59 °FSunny.3 mph51%30.07 "Hg10 mi
8:20 PM59 °FSunny.7 mph48%30.07 "Hg10 mi
7:50 PM61 °FPassing clouds.8 mph45%30.07 "HgN/A
7:20 PM63 °FPassing clouds.7 mph42%30.07 "HgN/A
6:50 PM63 °FPassing clouds.7 mph42%30.07 "HgN/A
6:20 PM64 °FPassing clouds.6 mph40%30.07 "HgN/A
5:50 PM66 °FScattered clouds.5 mph40%30.07 "HgN/A
5:20 PM64 °FScattered clouds.3 mph40%30.07 "HgN/A
4:50 PM64 °FScattered clouds.6 mph40%30.07 "HgN/A
4:20 PM64 °FScattered clouds.6 mph40%30.07 "HgN/A
3:50 PM66 °FScattered clouds.7 mph43%30.07 "HgN/A
3:20 PM66 °FScattered clouds.7 mph35%30.07 "HgN/A
2:50 PM64 °FScattered clouds.7 mph40%30.07 "HgN/A
2:20 PM64 °FPassing clouds.7 mph43%30.07 "HgN/A
1:50 PM64 °FPassing clouds.6 mph46%30.07 "HgN/A
1:20 PM64 °FPassing clouds.5 mph49%30.07 "HgN/A
12:50 PM63 °FPassing clouds.5 mph56%30.07 "HgN/A
12:20 PM63 °FPassing clouds.3 mph59%30.07 "HgN/A
Weather by CustomWeather, © 2016

See weather overviewHow to use our weather pages